Location: Ailly
(50.0793°N, 1.9944°E)
Time: 06:06:43
(UTC+00:00)

COSMOS 2406 - Pass Details

Date: 15 January 2026
Orbit: 843 x 861 km, 71.0° (Epoch: 17 February)

Event Time Altitude Azimuth Distance (km) Brightness Sun altitude
Exits shadow 06:32:25 - 330° (NNW) 2,816 5.5 -11.3°
Reaches altitude 10° 06:33:15 10° 330° (NNW) 2,496 5.2 -11.1°
Maximum altitude 06:39:00 83° 244° (WSW) 871 3.2 -10.3°
Drops below altitude 10° 06:44:44 10° 157° (SSE) 2,490 6.3 -9.4°
Sets 06:47:11 0° 156° (SSE) 3,424 7.1 -9.1°
